Aurora, OR

11:22 PM PST on December 08, 2016 (GMT -0800)
Aurora State

Weather History for KUAO - September, 2012

Change the Weather History Date:

Saturday, September 1, 2012

  Actual Average Record
Temperature  
Mean Temperature 62 °F -  
Max Temperature 76 °F - 95 °F (2006)
Min Temperature 47 °F - 42 °F (2008)
Degree Days  
Heating Degree Days 3    
Month to date heating degree days 3  
Since 1 July heating degree days 43  
Cooling Degree Days 0    
Month to date cooling degree days 0  
Year to date cooling degree days 251  
Growing Degree Days 12 (Base 50)    
Moisture  
Dew Point 45 °F    
Average Humidity 58    
Maximum Humidity 93    
Minimum Humidity 23    
Precipitation  
Precipitation 0.00 in - 0.29 in (1961)
Month to date precipitation 0.00  
Year to date precipitation 29.85  
Sea Level Pressure  
Sea Level Pressure 30.11 in    
Wind  
Wind Speed 4 mph (NNE)    
Max Wind Speed 10 mph    
Max Gust Speed 15 mph    
Visibility 10 miles    
Events      
T = Trace of Precipitation, MM = Missing Value Source: NWS Daily Summary

Daily Weather History Graph

Daily Weather History Graph

Search for Another Location

Airport or City:

Trip Planner

Search our weather history database for the weather conditions in past years. The results will help you decide how hot, cold, wet, or windy it might be!

Date:

Astronomy

Sep. 01, 2012 Rise Set
Actual Time 6:33 AM PDT 7:47 PM PDT
Civil Twilight 6:03 AM PDT 8:17 PM PDT
Nautical Twilight 5:26 AM PDT 8:54 PM PDT
Astronomical Twilight 4:47 AM PDT 9:32 PM PDT
Moon 7:58 PM PDT (9/1) 7:53 AM PDT (9/1)
Length of Visible Light 14h 14m
Length of Day
13h 13m
Full, 98% of the Moon is Illuminated
Sep 1
Full
Sep 8
Last Quarter
Sep 15
New
Sep 22
First Quarter
Sep 29
Full

Hourly Weather History & Observations

Time (PDT) Temp. Dew Point Humidity Pressure Visibility Wind Dir Wind Speed Gust Speed Precip Events Conditions
12:53 AM 55.0 °F 46.9 °F 74% 30.04 in 10.0 mi North 4.6 mph - N/A   Clear
1:53 AM 51.1 °F 46.0 °F 83% 30.05 in 10.0 mi NNE 4.6 mph - N/A   Clear
2:53 AM 52.0 °F 46.0 °F 80% 30.06 in 10.0 mi North 4.6 mph - N/A   Clear
3:53 AM 50.0 °F 45.0 °F 83% 30.08 in 10.0 mi North 3.5 mph - N/A   Clear
4:53 AM 50.0 °F 45.0 °F 83% 30.08 in 10.0 mi Calm Calm - N/A   Clear
5:53 AM 50.0 °F 46.9 °F 89% 30.09 in 10.0 mi East 3.5 mph - N/A   Clear
6:53 AM 48.0 °F 46.0 °F 93% 30.12 in 10.0 mi Calm Calm - N/A   Clear
7:53 AM 52.0 °F 48.0 °F 86% 30.13 in 10.0 mi Calm Calm - N/A   Clear
8:53 AM 55.9 °F 48.9 °F 77% 30.14 in 10.0 mi ENE 3.5 mph - N/A   Clear
9:53 AM 59.0 °F 48.9 °F 69% 30.15 in 10.0 mi NNE 4.6 mph - N/A   Clear
10:53 AM 62.1 °F 48.0 °F 60% 30.16 in 10.0 mi NE 5.8 mph - N/A   Clear
11:53 AM 64.9 °F 46.9 °F 52% 30.15 in 10.0 mi Calm Calm - N/A   Clear
12:53 PM 68.0 °F 46.0 °F 45% 30.14 in 10.0 mi Variable 3.5 mph - N/A   Clear
1:53 PM 70.0 °F 43.0 °F 38% 30.14 in 10.0 mi Variable 3.5 mph - N/A   Clear
3:53 PM 73.9 °F 37.0 °F 26% 30.11 in 10.0 mi Calm Calm - N/A   Clear
4:53 PM 75.0 °F 36.0 °F 24% 30.10 in 10.0 mi NNE 5.8 mph - N/A   Clear
5:53 PM 75.9 °F 35.1 °F 23% 30.09 in 10.0 mi NNE 8.1 mph - N/A   Clear
6:53 PM 73.9 °F 37.0 °F 26% 30.09 in 10.0 mi ENE 3.5 mph - N/A   Clear
7:53 PM 66.9 °F 41.0 °F 39% 30.10 in 10.0 mi NE 3.5 mph - N/A   Clear
8:53 PM 63.0 °F 48.0 °F 58% 30.12 in 10.0 mi NNE 5.8 mph - N/A   Clear
9:53 PM 62.1 °F 46.9 °F 58% 30.13 in 10.0 mi North 9.2 mph - N/A   Clear
10:53 PM 59.0 °F 48.0 °F 67% 30.14 in 10.0 mi North 6.9 mph - N/A   Clear
11:53 PM 55.0 °F 46.9 °F 74% 30.16 in 10.0 mi North 4.6 mph - N/A   Clear